Regional Weather Roundup
Issued by NWS Charleston, WV

Home | Current Version | Previous Version | Graphics & Text | Print | Product List | Glossary On
Versions: 1 2 3 4 5 6 7 8 9 10 11 12 13 14 15 16 17 18 19 20 21 22 23 24 25 26 27 28 29 30 31 32 33 34 35 36 37 38 39 40 41 42 43 44 45 46 47 48 49 50
000
ASUS41 KRLX 272310
RWRRLX
West Virginia Regional Weather Roundup
National Weather Service Charleston WV
700 PM EDT MON APR 27 2015

Note: "fair" indicates few or no clouds below 12,000 feet with no
significant weather and/or obstructions to visibility.

WVZ003-280000-
Northern Panhandle of West Virginia

CITY           SKY/WX    TMP DP  RH WIND       PRES   REMARKS
WHEELING       CLOUDY    44  32  62 NW15G26   29.98S
$$

WVZ009-280000-
Northwest West Virginia

CITY           SKY/WX    TMP DP  RH WIND       PRES   REMARKS
PARKERSBURG    CLOUDY    50  36  58 VRB5      30.00R
$$

WVZ006-280000-
Western West Virginia

CITY           SKY/WX    TMP DP  RH WIND       PRES   REMARKS
HUNTINGTON     CLOUDY    58  35  42 VRB6      29.94R
$$

WVZ015-280000-
West Central West Virginia

CITY           SKY/WX    TMP DP  RH WIND       PRES   REMARKS
CHARLESTON     PTSUNNY   56  33  42 N7        29.94R
$$

WVZ022-031-280000-
North Central West Virginia

CITY           SKY/WX    TMP DP  RH WIND       PRES   REMARKS
CLARKSBURG     CLOUDY    48  33  56 NW15G24   29.95R
MORGANTOWN     CLOUDY    47  32  56 VRB7      29.96R
$$

WVZ025-035-042-045-280000-
Southern West Virginia

CITY           SKY/WX    TMP DP  RH WIND       PRES   REMARKS
BECKLEY        CLOUDY    50  30  46 NW8       29.92S
LOGAN          CLOUDY    55  32  41 VRB3      29.90S
BLUEFIELD      CLOUDY    52  28  39 VRB7G20   29.92S
LEWISBURG      CLOUDY    51  30  44 NW8       29.91S
$$

WVZ047-280000-
Northern Mountains of West Virginia

CITY           SKY/WX    TMP DP  RH WIND       PRES   REMARKS
ELKINS         CLOUDY    46  32  58 NW9       29.93R
$$

WVZ052-280000-
Eastern Panhandle of West Virginia

CITY           SKY/WX    TMP DP  RH WIND       PRES   REMARKS
MARTINSBURG    MOSUNNY   54  34  46 NW13      29.84R
PETERSBURG     CLOUDY    47  33  56 NW12G18   29.92R
$$


USA.gov is the U.S. government's official web portal to all federal, state and local government web resources and services.